DW9572 Weather Reports


time (UTC)temp
C
wind
direction
speed
KPH
gust
KPH
rain 1hr
cm
rain 24hr
cm
rain mn
cm
humidity
%
barometer
mb
20260507120012 10 328 9.7 16.1 0.00 0.00 0.00 74 1013.7
20260507114549 10 331 6.4 14.5 0.00 0.00 0.00 74 1013.6
20260507113107 10 338 8.0 17.7 0.00 0.00 0.00 75 1013.5
20260507111531 12 126 0.0 4.8 0.00 0.00 0.00 72 1013.7
20260507110025 12 120 0.0 3.2 0.00 0.00 0.00 74 1013.5
20260507104517 11 84 1.6 9.7 0.00 0.00 0.00 75 1013.5
20260507103007 12 64 6.4 11.3 0.00 0.00 0.00 67 1013.2
20260507101507 13 263 8.0 12.9 0.00 0.00 0.00 67 1013.0
20260507100008 13 283 9.7 14.5 0.00 0.00 0.00 68 1013.1
20260507094502 14 316 3.2 8.0 0.00 0.00 0.00 54 1013.0
20260507093001 14 294 3.2 6.4 0.00 0.00 0.00 58 1013.0
20260507091559 15 328 9.7 17.7 0.00 0.00 0.00 56 1013.1
20260507090100 15 301 4.8 8.0 0.00 0.00 0.00 57 1013.3
20260507084602 15 309 1.6 6.4 0.00 0.00 0.00 62 1013.3
20260507083035 16 127 3.2 9.7 0.00 0.00 0.00 58 1013.2
20260507081534 16 242 4.8 16.1 0.00 0.00 0.00 58 1013.0
20260507080017 16 260 6.4 19.3 0.00 0.00 0.00 57 1012.9
20260507074516 16 138 3.2 16.1 0.00 0.00 0.00 52 1013.1
20260507073059 17 276 11.3 20.9 0.00 0.00 0.00 44 1012.6
20260507071555 17 307 11.3 20.9 0.00 0.00 0.00 47 1012.6
20260507070044 16 345 16.1 24.1 0.00 0.00 0.00 48 1012.5
20260507064544 17 360 14.5 24.1 0.00 0.00 0.00 46 1012.6
20260507063017 18 20 8.0 12.9 0.00 0.00 0.00 42 1012.2
20260507061517 19 305 4.8 11.3 0.00 0.00 0.00 40 1011.9
20260507060100 18 277 8.0 14.5 0.00 0.00 0.00 42 1011.8
20260507054600 20 345 11.3 14.5 0.00 0.00 0.00 39 1012.0
20260507053049 19 69 6.4 8.0 0.00 0.00 0.00 40 1012.1
20260507051548 19 345 0.0 8.0 0.00 0.00 0.00 42 1011.8
20260507050104 20 273 0.0 0.0 0.00 0.00 0.00 41 1011.7
20260507044553 21 328 1.6 9.7 0.00 0.00 0.00 39 1011.7
20260507043046 20 77 0.0 8.0 0.00 0.00 0.00 40 1011.5
20260507041547 20 63 0.0 0.0 0.00 0.00 0.00 41 1011.4
20260507040048 21 176 0.0 1.6 0.00 0.00 0.00 39 1011.3
20260507034546 21 262 0.0 8.0 0.00 0.00 0.00 40 1011.0
20260507033029 22 201 1.6 6.4 0.00 0.00 0.00 38 1010.8
20260507031523 22 18 1.6 6.4 0.00 0.00 0.00 37 1010.5
20260507030005 23 19 0.0 9.7 0.00 0.00 0.00 35 1010.4
20260507024502 25 322 12.9 27.4 0.00 0.00 0.00 31 1010.2
20260507023044 25 339 9.7 24.1 0.00 0.00 0.00 32 1010.2
20260507021554 25 320 8.0 20.9 0.00 0.00 0.00 32 1010.2
20260507020026 25 41 17.7 25.7 0.00 0.00 0.00 31 1010.0
20260507014525 26 340 12.9 20.9 0.00 0.00 0.00 30 1010.0
20260507013009 26 353 17.7 29.0 0.00 0.00 0.00 29 1009.8
20260507011514 26 335 14.5 22.5 0.00 0.00 0.00 28 1009.7
20260507010048 27 43 12.9 27.4 0.00 0.00 0.00 27 1009.7
20260507004547 27 20 16.1 27.4 0.00 0.00 0.00 25 1009.7
20260507003029 28 360 12.9 22.5 0.00 0.00 0.00 26 1009.8
20260507001530 28 228 22.5 30.6 0.00 0.00 0.00 36 1009.0
20260507000007 28 214 19.3 33.8 0.00 0.00 0.00 34 1008.8
20260506234507 29 245 29.0 41.8 0.00 0.00 0.00 32 1008.7
20260506233050 29 252 32.2 43.5 0.00 0.00 0.00 33 1008.7
20260506231546 29 233 35.4 45.1 0.00 0.00 0.00 33 1008.7
20260506230026 29 229 29.0 43.5 0.00 0.00 0.00 31 1009.0
20260506224526 29 211 33.8 43.5 0.00 0.00 0.00 30 1009.1
20260506223004 29 203 30.6 40.2 0.00 0.00 0.00 31 1009.5
20260506221601 28 210 20.9 35.4 0.00 0.00 0.00 31 1009.7
20260506220040 28 240 29.0 38.6 0.00 0.00 0.00 29 1009.9
20260506214539 28 207 29.0 38.6 0.00 0.00 0.00 31 1010.0
20260506213020 28 231 33.8 45.1 0.00 0.00 0.00 31 1010.0
20260506211513 28 200 33.8 53.1 0.00 0.00 0.00 33 1010.2
20260506210054 28 210 33.8 51.5 0.00 0.00 0.00 32 1010.3
20260506204559 27 227 40.2 54.7 0.00 0.00 0.00 32 1010.4
20260506203034 27 239 32.2 53.1 0.00 0.00 0.00 33 1010.4
20260506201536 27 211 37.0 56.3 0.00 0.00 0.00 33 1010.4
20260506200022 27 245 38.6 51.5 0.00 0.00 0.00 33 1010.5
20260506194518 27 262 40.2 59.5 0.00 0.00 0.00 34 1010.7
20260506193018 27 226 30.6 49.9 0.00 0.00 0.00 36 1011.0
20260506191514 26 274 32.2 49.9 0.00 0.00 0.00 35 1011.0
20260506190011 26 201 40.2 51.5 0.00 0.00 0.00 39 1011.0
20260506184509 26 210 33.8 46.7 0.00 0.00 0.00 40 1011.2
20260506183007 25 230 32.2 43.5 0.00 0.00 0.00 41 1011.3
20260506181505 25 224 27.4 37.0 0.00 0.00 0.00 43 1011.4
20260506180045 24 249 24.1 35.4 0.00 0.00 0.00 44 1011.6
20260506174543 23 200 24.1 33.8 0.00 0.00 0.00 44 1012.0
20260506173023 23 219 22.5 35.4 0.00 0.00 0.00 46 1011.8
20260506171534 23 250 27.4 40.2 0.00 0.00 0.00 45 1011.8
20260506170001 22 249 24.1 35.4 0.00 0.00 0.00 46 1012.1
20260506164558 22 215 25.7 35.4 0.00 0.00 0.00 47 1012.2
20260506163037 22 229 24.1 35.4 0.00 0.00 0.00 48 1012.3
20260506161539 21 215 25.7 33.8 0.00 0.00 0.00 49 1012.3
20260506160011 21 238 24.1 35.4 0.00 0.00 0.00 52 1012.2
20260506154507 20 215 24.1 33.8 0.00 0.00 0.00 53 1012.1
20260506153047 20 235 24.1 37.0 0.00 0.00 0.00 55 1012.0
20260506151602 20 241 24.1 32.2 0.00 0.00 0.00 54 1012.0
20260506150031 20 207 25.7 35.4 0.00 0.00 0.00 51 1012.1
20260506144526 20 202 16.1 25.7 0.00 0.00 0.00 50 1012.1
20260506143025 20 277 14.5 24.1 0.00 0.00 0.00 47 1012.0
20260506141503 19 232 9.7 24.1 0.00 0.00 0.00 47 1012.0
20260506140059 18 257 12.9 22.5 0.00 0.00 0.00 47 1011.9
20260506134545 17 266 6.4 11.3 0.00 0.00 0.00 52 1011.7
20260506133045 16 165 0.0 0.0 0.00 0.00 0.00 54 1011.6
20260506131541 16 210 0.0 0.0 0.00 0.00 0.00 54 1011.4
20260506130038 16 259 0.0 0.0 0.00 0.00 0.00 51 1011.3
20260506124537 17 290 0.0 8.0 0.00 0.00 0.00 48 1011.1
20260506123034 17 267 0.0 11.3 0.00 0.00 0.00 49 1011.1
20260506121530 17 271 8.0 12.9 0.00 0.00 0.00 52 1010.9